Terminal Aerodrome Forecast
Issued by NWS

Home | Current Version | Previous Version | Text Only | Print | Product List | Glossary On
Versions: 1 2 3 4 5 6 7 8 9 10 11 12 13 14 15 16 17 18 19 20 21 22 23 24 25 26 27 28 29 30 31 32
000
FTPA31 PHFO 220500
TAFLNY
TAF
PHNY 220538Z 2206/2306 05008KT P6SM FEW030
     FM222000 04014G20KT P6SM SCT025
     FM222300 04020G30KT P6SM SCT025
      AMD NOT SKED=

USA.gov is the U.S. government's official web portal to all federal, state and local government web resources and services.